Location: Bonnesvalyn
(49.1218°N, 3.3177°E)
Time: 22:58:32
(UTC+00:00)

Feng Yun 1-1 Rocket - Pass Details

Date: 09 February 2023
Orbit: 830 x 932 km, 99.1° (Epoch: 01 April)

Event Time Altitude Azimuth Distance (km) Brightness Sun altitude
Rises 18:13:17 0° 142° (SE) 3,421 7.1 -13.0°
Reaches altitude 10° 18:15:46 10° 136° (SE) 2,476 6.3 -13.4°
Maximum altitude 18:20:54 44° 66° (ENE) 1,156 4.5 -14.2°
Drops below altitude 10° 18:26:01 10° 356° (N) 2,454 6.6 -15.0°
Sets 18:28:27 0° 350° (N) 3,388 7.4 -15.4°
